| time (UTC) | temp F | wind direction | speed MPH | gust MPH | rain 1hr in | rain 24hr in | rain mn in | humidity % | barometer mb |
| 20260904162022 | 95 | 154 | 1.0 | 6.0 | 0.00 | 0.00 | 0.00 | 56 | 1016.5 |
| 20260904161634 | 95 | 216 | 2.0 | 7.0 | 0.00 | 0.00 | 0.00 | 57 | 1018.6 |
| 20260904161543 | 95 | 256 | 1.0 | 8.0 | 0.00 | 0.00 | 0.00 | 56 | 1016.7 |
| 20260904161023 | 94 | 154 | 2.0 | 8.0 | 0.00 | 0.00 | 0.00 | 58 | 1016.7 |
| 20260904160651 | 95 | 197 | 2.0 | 7.0 | 0.00 | 0.00 | 0.00 | 58 | 1018.8 |
| 20260904160527 | 94 | 149 | 2.0 | 8.0 | 0.00 | 0.00 | 0.00 | 58 | 1016.7 |
| 20260904160057 | 94 | 280 | 2.0 | 7.0 | 0.00 | 0.00 | 0.00 | 58 | 1016.7 |
| 20260904155710 | 94 | 217 | 3.0 | 6.0 | 0.00 | 0.00 | 0.00 | 58 | 1018.7 |
| 20260904155526 | 94 | 189 | 4.0 | 7.0 | 0.00 | 0.00 | 0.00 | 58 | 1016.7 |
| 20260904155024 | 94 | 197 | 2.0 | 7.0 | 0.00 | 0.00 | 0.00 | 60 | 1016.8 |
| 20260904154723 | 94 | 170 | 3.0 | 6.0 | 0.00 | 0.00 | 0.00 | 58 | 1018.8 |
| 20260904154552 | 93 | 104 | 4.0 | 7.0 | 0.00 | 0.00 | 0.00 | 58 | 1016.8 |
| 20260904154026 | 93 | 135 | 3.0 | 7.0 | 0.00 | 0.00 | 0.00 | 61 | 1016.8 |
| 20260904153722 | 93 | 164 | 2.0 | 6.0 | 0.00 | 0.00 | 0.00 | 59 | 1018.7 |
| 20260904153525 | 93 | 131 | 2.0 | 7.0 | 0.00 | 0.00 | 0.00 | 62 | 1016.8 |
| 20260904153048 | 92 | 154 | 2.0 | 8.0 | 0.00 | 0.00 | 0.00 | 60 | 1016.8 |
| 20260904152733 | 93 | 189 | 3.0 | 6.0 | 0.00 | 0.00 | 0.00 | 61 | 1018.9 |
| 20260904152524 | 92 | 212 | 3.0 | 8.0 | 0.00 | 0.00 | 0.00 | 62 | 1016.9 |
| 20260904152026 | 92 | 124 | 3.0 | 7.0 | 0.00 | 0.00 | 0.00 | 63 | 1016.9 |
| 20260904151712 | 92 | 235 | 3.0 | 7.0 | 0.00 | 0.00 | 0.00 | 65 | 1018.9 |
| 20260904151544 | 91 | 183 | 3.0 | 7.0 | 0.00 | 0.00 | 0.00 | 64 | 1017.0 |
| 20260904151024 | 91 | 221 | 3.0 | 8.0 | 0.00 | 0.00 | 0.00 | 64 | 1016.9 |
| 20260904150700 | 91 | 226 | 3.0 | 7.0 | 0.00 | 0.00 | 0.00 | 65 | 1019.1 |
| 20260904150524 | 90 | 175 | 3.0 | 8.0 | 0.00 | 0.00 | 0.00 | 65 | 1017.0 |
| 20260904150053 | 90 | 170 | 2.0 | 5.0 | 0.00 | 0.00 | 0.00 | 67 | 1017.0 |
| 20260904145658 | 90 | 185 | 1.0 | 6.0 | 0.00 | 0.00 | 0.00 | 66 | 1019.1 |
| 20260904145525 | 89 | 199 | 2.0 | 7.0 | 0.00 | 0.00 | 0.00 | 66 | 1017.0 |
| 20260904145025 | 89 | 197 | 1.0 | 7.0 | 0.00 | 0.00 | 0.00 | 68 | 1016.9 |
| 20260904144624 | 89 | 246 | 3.0 | 6.0 | 0.00 | 0.00 | 0.00 | 68 | 1019.0 |
| 20260904144605 | 89 | 181 | 3.0 | 7.0 | 0.00 | 0.00 | 0.00 | 68 | 1017.0 |
| 20260904144028 | 88 | 206 | 3.0 | 7.0 | 0.00 | 0.00 | 0.00 | 68 | 1017.1 |
| 20260904143606 | 88 | 220 | 2.0 | 5.0 | 0.00 | 0.00 | 0.00 | 71 | 1019.2 |
| 20260904143526 | 88 | 161 | 3.0 | 6.0 | 0.00 | 0.00 | 0.00 | 70 | 1017.2 |
| 20260904143057 | 88 | 183 | 2.0 | 6.0 | 0.00 | 0.00 | 0.00 | 70 | 1017.2 |
| 20260904142542 | 88 | 239 | 1.0 | 5.0 | 0.00 | 0.00 | 0.00 | 70 | 1019.2 |
| 20260904142523 | 87 | 249 | 2.0 | 7.0 | 0.00 | 0.00 | 0.00 | 70 | 1017.2 |
| 20260904142026 | 87 | 194 | 3.0 | 7.0 | 0.00 | 0.00 | 0.00 | 71 | 1017.3 |
| 20260904141542 | 86 | 121 | 1.0 | 7.0 | 0.00 | 0.00 | 0.00 | 73 | 1017.3 |
| 20260904141526 | 87 | 121 | 1.0 | 7.0 | 0.00 | 0.00 | 0.00 | 73 | 1019.3 |
| 20260904141024 | 86 | 284 | 2.0 | 8.0 | 0.00 | 0.00 | 0.00 | 73 | 1017.3 |
| 20260904140525 | 86 | 189 | 3.0 | 8.0 | 0.00 | 0.00 | 0.00 | 73 | 1017.2 |
| 20260904140458 | 86 | 199 | 2.0 | 7.0 | 0.00 | 0.00 | 0.00 | 73 | 1019.2 |
| 20260904140054 | 85 | 126 | 3.0 | 7.0 | 0.00 | 0.00 | 0.00 | 73 | 1017.2 |
| 20260904135525 | 85 | 210 | 2.0 | 7.0 | 0.00 | 0.00 | 0.00 | 75 | 1017.1 |
| 20260904135433 | 85 | 212 | 2.0 | 6.0 | 0.00 | 0.00 | 0.00 | 75 | 1019.2 |
| 20260904135024 | 84 | 262 | 2.0 | 7.0 | 0.00 | 0.00 | 0.00 | 74 | 1017.2 |
| 20260904134549 | 84 | 227 | 3.0 | 7.0 | 0.00 | 0.00 | 0.00 | 75 | 1017.2 |
| 20260904134447 | 85 | 197 | 3.0 | 6.0 | 0.00 | 0.00 | 0.00 | 75 | 1019.1 |
| 20260904134029 | 84 | 199 | 3.0 | 7.0 | 0.00 | 0.00 | 0.00 | 76 | 1017.1 |
| 20260904133523 | 83 | 257 | 2.0 | 8.0 | 0.00 | 0.00 | 0.00 | 78 | 1017.2 |
| 20260904133434 | 84 | 289 | 3.0 | 7.0 | 0.00 | 0.00 | 0.00 | 77 | 1019.3 |
| 20260904133055 | 83 | 239 | 4.0 | 8.0 | 0.00 | 0.00 | 0.00 | 77 | 1017.3 |
| 20260904132525 | 83 | 164 | 3.0 | 7.0 | 0.00 | 0.00 | 0.00 | 78 | 1017.2 |
| 20260904132431 | 83 | 168 | 3.0 | 7.0 | 0.00 | 0.00 | 0.00 | 78 | 1019.2 |
| 20260904132020 | 82 | 285 | 3.0 | 7.0 | 0.00 | 0.00 | 0.00 | 78 | 1017.2 |
| 20260904131551 | 82 | 225 | 3.0 | 8.0 | 0.00 | 0.00 | 0.00 | 79 | 1017.3 |
| 20260904131024 | 81 | 254 | 3.0 | 8.0 | 0.00 | 0.00 | 0.00 | 80 | 1017.4 |
| 20260904130524 | 81 | 174 | 3.0 | 7.0 | 0.00 | 0.00 | 0.00 | 80 | 1017.4 |
| 20260904130250 | 82 | 280 | 1.0 | 4.0 | 0.00 | 0.00 | 0.00 | 80 | 1019.5 |
| 20260904130048 | 81 | 253 | 0.0 | 4.0 | 0.00 | 0.00 | 0.00 | 81 | 1017.5 |
| 20260904125525 | 81 | 126 | 2.0 | 4.0 | 0.00 | 0.00 | 0.00 | 81 | 1017.5 |
| 20260904125315 | 81 | 228 | 1.0 | 3.0 | 0.00 | 0.00 | 0.00 | 82 | 1019.5 |
| 20260904125025 | 80 | 0 | 1.0 | 3.0 | 0.00 | 0.00 | 0.00 | 82 | 1017.4 |
| 20260904124546 | 80 | 196 | 1.0 | 3.0 | 0.00 | 0.00 | 0.00 | 83 | 1017.5 |
| 20260904124307 | 80 | 184 | 0.0 | 0.0 | 0.00 | 0.00 | 0.00 | 83 | 1019.6 |
| 20260904124023 | 79 | 0 | 0.0 | 4.0 | 0.00 | 0.00 | 0.00 | 83 | 1017.6 |
| 20260904123528 | 79 | 255 | 0.0 | 4.0 | 0.00 | 0.00 | 0.00 | 84 | 1017.6 |
| 20260904123313 | 79 | 255 | 0.0 | 3.0 | 0.00 | 0.00 | 0.00 | 84 | 1019.6 |
| 20260904123052 | 78 | 206 | 1.0 | 4.0 | 0.00 | 0.00 | 0.00 | 85 | 1017.6 |
| 20260904122530 | 78 | 201 | 0.0 | 4.0 | 0.00 | 0.00 | 0.00 | 85 | 1017.5 |
| 20260904122319 | 78 | 264 | 1.0 | 2.0 | 0.00 | 0.00 | 0.00 | 85 | 1019.5 |
| 20260904122026 | 77 | 209 | 1.0 | 4.0 | 0.00 | 0.00 | 0.00 | 86 | 1017.4 |
| 20260904121622 | 77 | 185 | 2.0 | 4.0 | 0.00 | 0.00 | 0.00 | 86 | 1017.3 |
| 20260904121336 | 77 | 172 | 1.0 | 2.0 | 0.00 | 0.00 | 0.00 | 86 | 1019.4 |
| 20260904121027 | 77 | 206 | 2.0 | 4.0 | 0.00 | 0.00 | 0.00 | 86 | 1017.3 |
| 20260904120524 | 76 | 0 | 1.0 | 3.0 | 0.00 | 0.00 | 0.00 | 87 | 1017.3 |
| 20260904120305 | 76 | 172 | 0.0 | 2.0 | 0.00 | 0.00 | 0.00 | 87 | 1019.3 |
| 20260904120056 | 76 | 182 | 0.0 | 3.0 | 0.00 | 0.00 | 0.00 | 87 | 1017.3 |
| 20260904115524 | 75 | 282 | 0.0 | 3.0 | 0.00 | 0.00 | 0.00 | 87 | 1017.3 |
| 20260904115249 | 75 | 210 | 0.0 | 0.0 | 0.00 | 0.00 | 0.00 | 87 | 1019.3 |
| 20260904115028 | 75 | 0 | 0.0 | 3.0 | 0.00 | 0.00 | 0.00 | 87 | 1017.2 |
| 20260904114547 | 74 | 182 | 1.0 | 2.0 | 0.00 | 0.00 | 0.00 | 87 | 1017.1 |
| 20260904114225 | 74 | 157 | 0.0 | 1.0 | 0.00 | 0.00 | 0.00 | 87 | 1019.1 |
| 20260904114024 | 74 | 157 | 0.0 | 2.0 | 0.00 | 0.00 | 0.00 | 87 | 1017.1 |
| 20260904113523 | 73 | 157 | 0.0 | 2.0 | 0.00 | 0.00 | 0.00 | 88 | 1017.0 |
| 20260904113041 | 72 | 0 | 0.0 | 2.0 | 0.00 | 0.00 | 0.00 | 87 | 1017.0 |
| 20260904112524 | 72 | 0 | 0.0 | 1.0 | 0.00 | 0.00 | 0.00 | 88 | 1016.9 |
| 20260904112132 | 73 | 174 | 0.0 | 0.0 | 0.00 | 0.00 | 0.00 | 88 | 1019.0 |
| 20260904112024 | 72 | 0 | 0.0 | 1.0 | 0.00 | 0.00 | 0.00 | 88 | 1017.0 |
| 20260904111550 | 72 | 0 | 0.0 | 1.0 | 0.00 | 0.00 | 0.00 | 88 | 1017.1 |
| 20260904111153 | 73 | 174 | 0.0 | 0.0 | 0.00 | 0.00 | 0.00 | 88 | 1019.1 |
| 20260904111024 | 72 | 0 | 0.0 | 1.0 | 0.00 | 0.00 | 0.00 | 87 | 1017.0 |
| 20260904110525 | 72 | 174 | 0.0 | 1.0 | 0.00 | 0.00 | 0.00 | 87 | 1017.0 |
| 20260904110046 | 72 | 0 | 0.0 | 1.0 | 0.00 | 0.00 | 0.00 | 87 | 1016.8 |
| 20260904105524 | 73 | 0 | 0.0 | 1.0 | 0.00 | 0.00 | 0.00 | 87 | 1016.7 |
| 20260904105025 | 73 | 174 | 0.0 | 0.0 | 0.00 | 0.00 | 0.00 | 87 | 1018.7 |
| 20260904104547 | 73 | 0 | 0.0 | 2.0 | 0.00 | 0.00 | 0.00 | 87 | 1016.5 |
| 20260904104023 | 73 | 174 | 0.0 | 2.0 | 0.00 | 0.00 | 0.00 | 87 | 1016.5 |
| 20260904104003 | 74 | 210 | 0.0 | 0.0 | 0.00 | 0.00 | 0.00 | 87 | 1018.5 |
| 20260904103525 | 73 | 0 | 0.0 | 1.0 | 0.00 | 0.00 | 0.00 | 87 | 1016.6 |
| 20260904103052 | 72 | 0 | 0.0 | 2.0 | 0.00 | 0.00 | 0.00 | 87 | 1016.5 |
| 20260904102928 | 73 | 169 | 0.0 | 0.0 | 0.00 | 0.00 | 0.00 | 87 | 1018.5 |
| 20260904102524 | 72 | 169 | 0.0 | 2.0 | 0.00 | 0.00 | 0.00 | 87 | 1016.5 |
| 20260904102024 | 72 | 169 | 1.0 | 2.0 | 0.00 | 0.00 | 0.00 | 87 | 1016.5 |
| 20260904101951 | 73 | 169 | 0.0 | 1.0 | 0.00 | 0.00 | 0.00 | 87 | 1018.6 |
| 20260904101548 | 72 | 0 | 0.0 | 0.0 | 0.00 | 0.00 | 0.00 | 87 | 1016.6 |
| 20260904101024 | 73 | 0 | 0.0 | 0.0 | 0.00 | 0.00 | 0.00 | 87 | 1016.7 |
| 20260904101007 | 73 | 169 | 0.0 | 0.0 | 0.00 | 0.00 | 0.00 | 87 | 1018.8 |
| 20260904100524 | 73 | 0 | 0.0 | 1.0 | 0.00 | 0.00 | 0.00 | 87 | 1016.7 |
| 20260904100046 | 73 | 0 | 0.0 | 1.0 | 0.00 | 0.00 | 0.00 | 87 | 1016.7 |
| 20260904100006 | 73 | 169 | 0.0 | 0.0 | 0.00 | 0.00 | 0.00 | 87 | 1018.7 |
| 20260904095525 | 73 | 169 | 0.0 | 1.0 | 0.00 | 0.00 | 0.00 | 87 | 1016.6 |
| 20260904095022 | 73 | 0 | 0.0 | 1.0 | 0.00 | 0.00 | 0.00 | 87 | 1016.6 |
| 20260904094542 | 74 | 0 | 0.0 | 2.0 | 0.00 | 0.00 | 0.00 | 87 | 1016.5 |
| 20260904094022 | 74 | 0 | 0.0 | 2.0 | 0.00 | 0.00 | 0.00 | 87 | 1016.4 |
| 20260904093824 | 75 | 169 | 0.0 | 1.0 | 0.00 | 0.00 | 0.00 | 87 | 1018.5 |
| 20260904093524 | 74 | 0 | 0.0 | 2.0 | 0.00 | 0.00 | 0.00 | 87 | 1016.4 |
| 20260904093053 | 74 | 0 | 0.0 | 1.0 | 0.00 | 0.00 | 0.00 | 87 | 1016.4 |
| 20260904092817 | 74 | 169 | 0.0 | 0.0 | 0.00 | 0.00 | 0.00 | 87 | 1018.4 |
| 20260904092524 | 74 | 0 | 0.0 | 1.0 | 0.00 | 0.00 | 0.00 | 87 | 1016.4 |
| 20260904092024 | 74 | 0 | 0.0 | 2.0 | 0.00 | 0.00 | 0.00 | 87 | 1016.3 |
| 20260904091838 | 74 | 169 | 0.0 | 2.0 | 0.00 | 0.00 | 0.00 | 87 | 1018.3 |
| 20260904091556 | 74 | 169 | 0.0 | 2.0 | 0.00 | 0.00 | 0.00 | 86 | 1016.2 |
| 20260904091023 | 74 | 206 | 1.0 | 2.0 | 0.00 | 0.00 | 0.00 | 86 | 1016.1 |
| 20260904090852 | 75 | 206 | 0.0 | 1.0 | 0.00 | 0.00 | 0.00 | 86 | 1018.2 |
| 20260904090524 | 75 | 206 | 0.0 | 2.0 | 0.00 | 0.00 | 0.00 | 86 | 1016.1 |
| 20260904090045 | 75 | 0 | 0.0 | 3.0 | 0.00 | 0.00 | 0.00 | 86 | 1016.1 |
| 20260904085523 | 75 | 0 | 0.0 | 3.0 | 0.00 | 0.00 | 0.00 | 86 | 1016.0 |
| 20260904085029 | 75 | 184 | 0.0 | 3.0 | 0.00 | 0.00 | 0.00 | 86 | 1015.9 |
| 20260904084807 | 75 | 184 | 1.0 | 2.0 | 0.00 | 0.00 | 0.00 | 86 | 1017.9 |
| 20260904084541 | 75 | 166 | 1.0 | 3.0 | 0.00 | 0.00 | 0.00 | 86 | 1015.9 |
| 20260904084025 | 76 | 175 | 1.0 | 3.0 | 0.00 | 0.00 | 0.00 | 86 | 1015.8 |
| 20260904083524 | 76 | 181 | 1.0 | 3.0 | 0.00 | 0.00 | 0.00 | 86 | 1015.8 |
| 20260904083047 | 76 | 206 | 1.0 | 3.0 | 0.00 | 0.00 | 0.00 | 86 | 1015.7 |
| 20260904082656 | 76 | 199 | 1.0 | 5.0 | 0.00 | 0.00 | 0.00 | 86 | 1017.7 |
| 20260904082524 | 76 | 199 | 1.0 | 4.0 | 0.00 | 0.00 | 0.00 | 86 | 1015.6 |
| 20260904082024 | 76 | 179 | 1.0 | 7.0 | 0.00 | 0.00 | 0.00 | 86 | 1015.6 |
| 20260904081629 | 76 | 165 | 1.0 | 5.0 | 0.00 | 0.00 | 0.00 | 86 | 1017.6 |
| 20260904081545 | 76 | 204 | 1.0 | 7.0 | 0.00 | 0.00 | 0.00 | 86 | 1015.6 |
| 20260904081024 | 76 | 188 | 1.0 | 6.0 | 0.00 | 0.00 | 0.00 | 86 | 1015.7 |
| 20260904080618 | 77 | 187 | 1.0 | 3.0 | 0.00 | 0.00 | 0.00 | 86 | 1017.7 |
| 20260904080522 | 76 | 182 | 1.0 | 6.0 | 0.00 | 0.00 | 0.00 | 86 | 1015.7 |
| 20260904080053 | 76 | 166 | 3.0 | 6.0 | 0.00 | 0.00 | 0.00 | 86 | 1015.7 |
| 20260904075600 | 76 | 206 | 1.0 | 3.0 | 0.00 | 0.00 | 0.00 | 86 | 1017.7 |
| 20260904075521 | 76 | 183 | 1.0 | 6.0 | 0.00 | 0.00 | 0.00 | 86 | 1015.6 |
| 20260904075029 | 76 | 194 | 2.0 | 6.0 | 0.00 | 0.00 | 0.00 | 86 | 1015.7 |
| 20260904074601 | 76 | 167 | 2.0 | 4.0 | 0.00 | 0.00 | 0.00 | 86 | 1015.8 |
| 20260904074028 | 76 | 202 | 2.0 | 4.0 | 0.00 | 0.00 | 0.00 | 86 | 1015.7 |
| 20260904073524 | 75 | 185 | 1.0 | 4.0 | 0.00 | 0.00 | 0.00 | 87 | 1015.8 |
| 20260904073439 | 76 | 185 | 1.0 | 3.0 | 0.00 | 0.00 | 0.00 | 87 | 1017.8 |
| 20260904073047 | 75 | 187 | 1.0 | 4.0 | 0.00 | 0.00 | 0.00 | 87 | 1015.9 |
| 20260904072524 | 75 | 178 | 1.0 | 4.0 | 0.00 | 0.00 | 0.00 | 87 | 1015.9 |
| 20260904072440 | 76 | 204 | 1.0 | 3.0 | 0.00 | 0.00 | 0.00 | 87 | 1017.9 |
| 20260904072023 | 75 | 199 | 2.0 | 4.0 | 0.00 | 0.00 | 0.00 | 87 | 1015.9 |
| 20260904071609 | 75 | 173 | 2.0 | 4.0 | 0.00 | 0.00 | 0.00 | 87 | 1015.9 |
| 20260904071441 | 76 | 174 | 1.0 | 2.0 | 0.00 | 0.00 | 0.00 | 87 | 1017.9 |
| 20260904071029 | 75 | 176 | 1.0 | 4.0 | 0.00 | 0.00 | 0.00 | 87 | 1016.0 |
| 20260904070525 | 75 | 183 | 2.0 | 4.0 | 0.00 | 0.00 | 0.00 | 87 | 1016.1 |
| 20260904070446 | 75 | 183 | 1.0 | 2.0 | 0.00 | 0.00 | 0.00 | 87 | 1018.1 |
| 20260904070042 | 75 | 188 | 1.0 | 3.0 | 0.00 | 0.00 | 0.00 | 87 | 1016.0 |
| 20260904065524 | 75 | 186 | 1.0 | 3.0 | 0.00 | 0.00 | 0.00 | 87 | 1016.1 |
| 20260904065511 | 75 | 193 | 0.0 | 2.0 | 0.00 | 0.00 | 0.00 | 87 | 1018.2 |
| 20260904065023 | 74 | 0 | 1.0 | 3.0 | 0.00 | 0.00 | 0.00 | 87 | 1016.2 |
| 20260904064605 | 74 | 175 | 1.0 | 3.0 | 0.00 | 0.00 | 0.00 | 87 | 1016.3 |
| 20260904064025 | 73 | 0 | 0.0 | 0.0 | 0.00 | 0.00 | 0.00 | 87 | 1016.4 |
| 20260904063524 | 73 | 0 | 0.0 | 0.0 | 0.00 | 0.00 | 0.00 | 87 | 1016.4 |
| 20260904063354 | 74 | 213 | 0.0 | 0.0 | 0.00 | 0.00 | 0.00 | 87 | 1018.5 |
| 20260904063053 | 73 | 0 | 0.0 | 0.0 | 0.00 | 0.00 | 0.00 | 87 | 1016.6 |
| 20260904062524 | 74 | 0 | 0.0 | 0.0 | 0.00 | 0.00 | 0.00 | 87 | 1016.7 |
| 20260904062322 | 74 | 213 | 0.0 | 0.0 | 0.00 | 0.00 | 0.00 | 87 | 1018.7 |
| 20260904062022 | 74 | 0 | 0.0 | 0.0 | 0.00 | 0.00 | 0.00 | 87 | 1016.7 |
| 20260904061540 | 74 | 0 | 0.0 | 0.0 | 0.00 | 0.00 | 0.00 | 87 | 1016.8 |
| 20260904061024 | 74 | 0 | 0.0 | 0.0 | 0.00 | 0.00 | 0.00 | 87 | 1016.9 |
| 20260904060524 | 74 | 0 | 0.0 | 0.0 | 0.00 | 0.00 | 0.00 | 87 | 1016.9 |
| 20260904060209 | 74 | 213 | 0.0 | 0.0 | 0.00 | 0.00 | 0.00 | 87 | 1019.0 |
| 20260904060052 | 74 | 0 | 0.0 | 0.0 | 0.00 | 0.00 | 0.00 | 87 | 1016.9 |
| 20260904055526 | 74 | 0 | 0.0 | 0.0 | 0.00 | 0.00 | 0.00 | 87 | 1017.0 |
| 20260904055147 | 74 | 213 | 0.0 | 0.0 | 0.00 | 0.00 | 0.00 | 87 | 1019.1 |
| 20260904055025 | 74 | 0 | 0.0 | 0.0 | 0.00 | 0.00 | 0.00 | 87 | 1017.0 |
| 20260904054547 | 74 | 0 | 0.0 | 0.0 | 0.00 | 0.00 | 0.00 | 87 | 1017.3 |
| 20260904054203 | 75 | 213 | 0.0 | 0.0 | 0.00 | 0.00 | 0.00 | 87 | 1019.3 |
| 20260904054024 | 74 | 0 | 0.0 | 0.0 | 0.00 | 0.00 | 0.00 | 87 | 1017.3 |
| 20260904053525 | 74 | 0 | 0.0 | 0.0 | 0.00 | 0.00 | 0.00 | 87 | 1017.3 |
| 20260904053134 | 75 | 213 | 0.0 | 0.0 | 0.00 | 0.00 | 0.00 | 87 | 1019.3 |
| 20260904053058 | 74 | 0 | 0.0 | 0.0 | 0.00 | 0.00 | 0.00 | 87 | 1017.3 |
| 20260904052523 | 74 | 0 | 0.0 | 0.0 | 0.00 | 0.00 | 0.00 | 87 | 1017.3 |
| 20260904052152 | 75 | 213 | 0.0 | 0.0 | 0.00 | 0.00 | 0.00 | 87 | 1019.4 |
| 20260904052025 | 74 | 0 | 0.0 | 0.0 | 0.00 | 0.00 | 0.00 | 87 | 1017.4 |
| 20260904051542 | 74 | 0 | 0.0 | 0.0 | 0.00 | 0.00 | 0.00 | 87 | 1017.3 |
| 20260904051157 | 75 | 213 | 0.0 | 0.0 | 0.00 | 0.00 | 0.00 | 87 | 1019.5 |
| 20260904051021 | 74 | 0 | 0.0 | 0.0 | 0.00 | 0.00 | 0.00 | 87 | 1017.5 |
| 20260904050527 | 74 | 0 | 0.0 | 0.0 | 0.00 | 0.00 | 0.00 | 87 | 1017.5 |
| 20260904050151 | 75 | 213 | 0.0 | 0.0 | 0.00 | 0.00 | 0.00 | 87 | 1019.5 |
| 20260904050052 | 74 | 0 | 0.0 | 0.0 | 0.00 | 0.00 | 0.00 | 87 | 1017.5 |
| 20260904045525 | 74 | 0 | 0.0 | 0.0 | 0.00 | 0.00 | 0.00 | 87 | 1017.5 |
| 20260904045158 | 75 | 213 | 0.0 | 0.0 | 0.00 | 0.00 | 0.00 | 87 | 1019.6 |
| 20260904045025 | 74 | 0 | 0.0 | 0.0 | 0.00 | 0.00 | 0.00 | 87 | 1017.5 |
| 20260904044556 | 75 | 0 | 0.0 | 0.0 | 0.00 | 0.00 | 0.00 | 87 | 1017.5 |
| 20260904044141 | 75 | 213 | 0.0 | 0.0 | 0.00 | 0.00 | 0.00 | 87 | 1019.6 |
| 20260904044024 | 75 | 0 | 0.0 | 0.0 | 0.00 | 0.00 | 0.00 | 87 | 1017.5 |
| 20260904043525 | 75 | 0 | 0.0 | 0.0 | 0.00 | 0.00 | 0.00 | 87 | 1017.5 |
| 20260904043203 | 75 | 213 | 0.0 | 0.0 | 0.00 | 0.00 | 0.00 | 87 | 1019.4 |
| 20260904043048 | 75 | 0 | 0.0 | 0.0 | 0.00 | 0.00 | 0.00 | 87 | 1017.4 |
| 20260904042524 | 75 | 0 | 0.0 | 0.0 | 0.00 | 0.00 | 0.00 | 87 | 1017.4 |
| 20260904042139 | 75 | 213 | 0.0 | 0.0 | 0.00 | 0.00 | 0.00 | 87 | 1019.4 |
| 20260904042027 | 75 | 0 | 0.0 | 0.0 | 0.00 | 0.00 | 0.00 | 87 | 1017.3 |
| 20260904041547 | 75 | 0 | 0.0 | 0.0 | 0.00 | 0.00 | 0.00 | 87 | 1017.3 |
| 20260904041024 | 75 | 0 | 0.0 | 0.0 | 0.00 | 0.00 | 0.00 | 87 | 1017.2 |
| 20260904040528 | 75 | 0 | 0.0 | 0.0 | 0.00 | 0.00 | 0.00 | 87 | 1017.2 |
| 20260904040051 | 75 | 0 | 0.0 | 0.0 | 0.00 | 0.00 | 0.00 | 87 | 1017.2 |
| 20260904035958 | 76 | 213 | 0.0 | 0.0 | 0.00 | 0.00 | 0.00 | 87 | 1019.2 |
| 20260904035524 | 75 | 0 | 0.0 | 0.0 | 0.00 | 0.00 | 0.00 | 87 | 1017.2 |
| 20260904035027 | 75 | 0 | 0.0 | 0.0 | 0.00 | 0.00 | 0.00 | 87 | 1017.1 |
| 20260904034541 | 75 | 0 | 0.0 | 0.0 | 0.00 | 0.00 | 0.00 | 87 | 1017.2 |
| 20260904034022 | 75 | 0 | 0.0 | 0.0 | 0.00 | 0.00 | 0.00 | 87 | 1017.1 |
| 20260904033925 | 76 | 213 | 0.0 | 0.0 | 0.00 | 0.00 | 0.00 | 87 | 1019.1 |
| 20260904033526 | 75 | 0 | 0.0 | 0.0 | 0.00 | 0.00 | 0.00 | 87 | 1017.1 |
| 20260904033058 | 75 | 0 | 0.0 | 0.0 | 0.00 | 0.00 | 0.00 | 86 | 1017.2 |
| 20260904032524 | 76 | 0 | 0.0 | 0.0 | 0.00 | 0.00 | 0.00 | 86 | 1017.2 |
| 20260904032025 | 76 | 0 | 0.0 | 0.0 | 0.00 | 0.00 | 0.00 | 86 | 1017.3 |
| 20260904031830 | 76 | 213 | 0.0 | 0.0 | 0.00 | 0.00 | 0.00 | 86 | 1019.2 |
| 20260904031603 | 76 | 0 | 0.0 | 0.0 | 0.00 | 0.00 | 0.00 | 86 | 1017.2 |
| 20260904031031 | 76 | 0 | 0.0 | 0.0 | 0.00 | 0.00 | 0.00 | 86 | 1017.2 |
| 20260904030524 | 76 | 0 | 0.0 | 0.0 | 0.00 | 0.00 | 0.00 | 86 | 1017.3 |
| 20260904030043 | 76 | 0 | 0.0 | 0.0 | 0.00 | 0.00 | 0.00 | 86 | 1017.3 |
| 20260904025709 | 77 | 213 | 0.0 | 0.0 | 0.00 | 0.00 | 0.00 | 86 | 1019.3 |
| 20260904025524 | 76 | 0 | 0.0 | 0.0 | 0.00 | 0.00 | 0.00 | 86 | 1017.3 |
| 20260904025025 | 76 | 0 | 0.0 | 0.0 | 0.00 | 0.00 | 0.00 | 86 | 1017.3 |
| 20260904024652 | 77 | 213 | 0.0 | 0.0 | 0.00 | 0.00 | 0.00 | 86 | 1019.2 |
| 20260904024543 | 77 | 0 | 0.0 | 0.0 | 0.00 | 0.00 | 0.00 | 86 | 1017.2 |
| 20260904024024 | 77 | 0 | 0.0 | 0.0 | 0.00 | 0.00 | 0.00 | 86 | 1017.3 |
| 20260904023701 | 77 | 213 | 0.0 | 0.0 | 0.00 | 0.00 | 0.00 | 86 | 1019.3 |
| 20260904023524 | 77 | 0 | 0.0 | 0.0 | 0.00 | 0.00 | 0.00 | 86 | 1017.2 |
| 20260904023053 | 77 | 0 | 0.0 | 0.0 | 0.00 | 0.00 | 0.00 | 86 | 1017.2 |
| 20260904022709 | 78 | 213 | 0.0 | 0.0 | 0.00 | 0.00 | 0.00 | 86 | 1019.2 |
| 20260904022524 | 77 | 0 | 0.0 | 0.0 | 0.00 | 0.00 | 0.00 | 85 | 1017.3 |
| 20260904022024 | 77 | 0 | 0.0 | 0.0 | 0.00 | 0.00 | 0.00 | 85 | 1017.3 |
| 20260904021716 | 78 | 213 | 0.0 | 0.0 | 0.00 | 0.00 | 0.00 | 85 | 1019.2 |
| 20260904021552 | 77 | 0 | 0.0 | 0.0 | 0.00 | 0.00 | 0.00 | 85 | 1017.1 |
| 20260904021027 | 78 | 0 | 0.0 | 1.0 | 0.00 | 0.00 | 0.00 | 85 | 1017.3 |
| 20260904020650 | 78 | 213 | 0.0 | 0.0 | 0.00 | 0.00 | 0.00 | 85 | 1019.3 |
| 20260904020524 | 78 | 0 | 0.0 | 1.0 | 0.00 | 0.00 | 0.00 | 85 | 1017.3 |
| 20260904020046 | 78 | 0 | 0.0 | 1.0 | 0.00 | 0.00 | 0.00 | 84 | 1017.3 |
| 20260904015657 | 79 | 213 | 0.0 | 0.0 | 0.00 | 0.00 | 0.00 | 84 | 1019.3 |
| 20260904015525 | 78 | 0 | 0.0 | 1.0 | 0.00 | 0.00 | 0.00 | 84 | 1017.3 |
| 20260904015026 | 79 | 0 | 0.0 | 1.0 | 0.00 | 0.00 | 0.00 | 84 | 1017.2 |
| 20260904014623 | 79 | 213 | 0.0 | 0.0 | 0.00 | 0.00 | 0.00 | 84 | 1019.3 |
| 20260904014544 | 79 | 213 | 0.0 | 1.0 | 0.00 | 0.00 | 0.00 | 84 | 1017.2 |
| 20260904014024 | 79 | 0 | 0.0 | 0.0 | 0.00 | 0.00 | 0.00 | 84 | 1017.2 |
| 20260904013643 | 79 | 213 | 0.0 | 0.0 | 0.00 | 0.00 | 0.00 | 84 | 1019.1 |
| 20260904013528 | 79 | 0 | 0.0 | 0.0 | 0.00 | 0.00 | 0.00 | 83 | 1017.1 |
| 20260904013051 | 79 | 0 | 0.0 | 0.0 | 0.00 | 0.00 | 0.00 | 83 | 1017.1 |
| 20260904012526 | 79 | 0 | 0.0 | 1.0 | 0.00 | 0.00 | 0.00 | 83 | 1017.1 |
| 20260904012026 | 80 | 0 | 0.0 | 1.0 | 0.00 | 0.00 | 0.00 | 83 | 1017.0 |
| 20260904011546 | 80 | 213 | 0.0 | 1.0 | 0.00 | 0.00 | 0.00 | 82 | 1016.9 |
| 20260904011505 | 80 | 213 | 0.0 | 0.0 | 0.00 | 0.00 | 0.00 | 82 | 1018.9 |
| 20260904011024 | 80 | 0 | 0.0 | 0.0 | 0.00 | 0.00 | 0.00 | 82 | 1016.8 |
| 20260904010527 | 80 | 0 | 0.0 | 0.0 | 0.00 | 0.00 | 0.00 | 82 | 1016.7 |
| 20260904010444 | 81 | 213 | 0.0 | 0.0 | 0.00 | 0.00 | 0.00 | 82 | 1018.7 |
| 20260904010054 | 80 | 0 | 0.0 | 1.0 | 0.00 | 0.00 | 0.00 | 81 | 1016.6 |
| 20260904005523 | 81 | 0 | 0.0 | 1.0 | 0.00 | 0.00 | 0.00 | 81 | 1016.6 |
| 20260904005428 | 81 | 213 | 0.0 | 0.0 | 0.00 | 0.00 | 0.00 | 81 | 1018.6 |
| 20260904005025 | 81 | 0 | 0.0 | 1.0 | 0.00 | 0.00 | 0.00 | 81 | 1016.6 |
| 20260904004548 | 81 | 0 | 0.0 | 1.0 | 0.00 | 0.00 | 0.00 | 80 | 1016.4 |
| 20260904004436 | 82 | 213 | 0.0 | 0.0 | 0.00 | 0.00 | 0.00 | 80 | 1018.4 |
| 20260904004024 | 81 | 0 | 0.0 | 1.0 | 0.00 | 0.00 | 0.00 | 79 | 1016.5 |
| 20260904003523 | 82 | 0 | 0.0 | 1.0 | 0.00 | 0.00 | 0.00 | 78 | 1016.4 |
| 20260904003430 | 82 | 213 | 0.0 | 0.0 | 0.00 | 0.00 | 0.00 | 78 | 1018.4 |
| 20260904003052 | 82 | 0 | 0.0 | 1.0 | 0.00 | 0.00 | 0.00 | 77 | 1016.2 |
| 20260904002529 | 83 | 213 | 0.0 | 1.0 | 0.00 | 0.00 | 0.00 | 76 | 1016.2 |
| 20260904002407 | 83 | 213 | 0.0 | 0.0 | 0.00 | 0.00 | 0.00 | 76 | 1018.2 |
| 20260904002025 | 83 | 0 | 0.0 | 2.0 | 0.00 | 0.00 | 0.00 | 75 | 1016.1 |
| 20260904001550 | 83 | 213 | 0.0 | 2.0 | 0.00 | 0.00 | 0.00 | 75 | 1016.0 |
| 20260904001024 | 84 | 213 | 0.0 | 2.0 | 0.00 | 0.00 | 0.00 | 74 | 1016.0 |
| 20260904000524 | 84 | 213 | 0.0 | 1.0 | 0.00 | 0.00 | 0.00 | 73 | 1016.0 |
| 20260904000329 | 85 | 213 | 0.0 | 0.0 | 0.00 | 0.00 | 0.00 | 73 | 1018.1 |
| 20260904000047 | 85 | 0 | 0.0 | 1.0 | 0.00 | 0.00 | 0.00 | 71 | 1015.9 |
| 20260903235523 | 86 | 0 | 0.0 | 2.0 | 0.00 | 0.00 | 0.00 | 69 | 1015.9 |
| 20260903235347 | 87 | 213 | 0.0 | 0.0 | 0.00 | 0.00 | 0.00 | 67 | 1017.9 |
| 20260903235022 | 87 | 213 | 0.0 | 2.0 | 0.00 | 0.00 | 0.00 | 66 | 1015.8 |
| 20260903234542 | 88 | 213 | 0.0 | 2.0 | 0.00 | 0.00 | 0.00 | 63 | 1015.8 |
| 20260903234024 | 89 | 0 | 0.0 | 3.0 | 0.00 | 0.00 | 0.00 | 61 | 1015.7 |
| 20260903233525 | 90 | 176 | 1.0 | 4.0 | 0.00 | 0.00 | 0.00 | 59 | 1015.8 |
| 20260903233214 | 90 | 187 | 1.0 | 3.0 | 0.00 | 0.00 | 0.00 | 58 | 1017.8 |
| 20260903233053 | 90 | 183 | 1.0 | 4.0 | 0.00 | 0.00 | 0.00 | 58 | 1015.7 |
| 20260903232525 | 91 | 166 | 1.0 | 4.0 | 0.00 | 0.00 | 0.00 | 56 | 1015.6 |
| 20260903232225 | 91 | 193 | 1.0 | 6.0 | 0.00 | 0.00 | 0.00 | 56 | 1017.6 |
| 20260903232025 | 91 | 0 | 1.0 | 5.0 | 0.00 | 0.00 | 0.00 | 56 | 1015.6 |
| 20260903231551 | 91 | 177 | 2.0 | 7.0 | 0.00 | 0.00 | 0.00 | 55 | 1015.7 |
| 20260903231238 | 92 | 169 | 1.0 | 6.0 | 0.00 | 0.00 | 0.00 | 54 | 1017.7 |
| 20260903231024 | 92 | 141 | 1.0 | 7.0 | 0.00 | 0.00 | 0.00 | 54 | 1015.6 |
| 20260903230524 | 92 | 174 | 1.0 | 7.0 | 0.00 | 0.00 | 0.00 | 54 | 1015.5 |
| 20260903230213 | 93 | 98 | 1.0 | 6.0 | 0.00 | 0.00 | 0.00 | 54 | 1017.6 |
| 20260903230047 | 93 | 0 | 1.0 | 7.0 | 0.00 | 0.00 | 0.00 | 53 | 1015.5 |
| 20260903225521 | 93 | 137 | 2.0 | 7.0 | 0.00 | 0.00 | 0.00 | 53 | 1015.5 |
| 20260903225227 | 93 | 143 | 2.0 | 8.0 | 0.00 | 0.00 | 0.00 | 53 | 1017.6 |
| 20260903225024 | 93 | 145 | 1.0 | 10.0 | 0.00 | 0.00 | 0.00 | 52 | 1015.5 |
| 20260903224545 | 93 | 141 | 3.0 | 10.0 | 0.00 | 0.00 | 0.00 | 52 | 1015.4 |
| 20260903224242 | 94 | 149 | 4.0 | 9.0 | 0.00 | 0.00 | 0.00 | 51 | 1017.5 |
| 20260903224029 | 94 | 122 | 3.0 | 10.0 | 0.00 | 0.00 | 0.00 | 51 | 1015.5 |
| 20260903223526 | 94 | 174 | 4.0 | 11.0 | 0.00 | 0.00 | 0.00 | 51 | 1015.5 |
| 20260903223046 | 94 | 203 | 4.0 | 11.0 | 0.00 | 0.00 | 0.00 | 50 | 1015.6 |
| 20260903222523 | 95 | 199 | 4.0 | 11.0 | 0.00 | 0.00 | 0.00 | 50 | 1015.5 |
| 20260903222151 | 95 | 224 | 3.0 | 10.0 | 0.00 | 0.00 | 0.00 | 50 | 1017.6 |
| 20260903222023 | 95 | 187 | 3.0 | 12.0 | 0.00 | 0.00 | 0.00 | 50 | 1015.6 |
| 20260903221548 | 95 | 155 | 4.0 | 12.0 | 0.00 | 0.00 | 0.00 | 49 | 1015.6 |
| 20260903221027 | 95 | 172 | 4.0 | 10.0 | 0.00 | 0.00 | 0.00 | 49 | 1015.7 |
| 20260903220524 | 95 | 108 | 4.0 | 10.0 | 0.00 | 0.00 | 0.00 | 48 | 1015.7 |
| 20260903220054 | 96 | 129 | 4.0 | 13.0 | 0.00 | 0.00 | 0.00 | 48 | 1015.6 |
| 20260903215525 | 96 | 193 | 5.0 | 13.0 | 0.00 | 0.00 | 0.00 | 48 | 1015.7 |
| 20260903215024 | 96 | 128 | 5.0 | 12.0 | 0.00 | 0.00 | 0.00 | 47 | 1015.6 |
| 20260903214913 | 96 | 149 | 4.0 | 11.0 | 0.00 | 0.00 | 0.00 | 47 | 1017.7 |
| 20260903214550 | 96 | 193 | 4.0 | 9.0 | 0.00 | 0.00 | 0.00 | 48 | 1015.7 |
| 20260903214024 | 96 | 122 | 3.0 | 8.0 | 0.00 | 0.00 | 0.00 | 48 | 1015.7 |
| 20260903213853 | 97 | 178 | 3.0 | 10.0 | 0.00 | 0.00 | 0.00 | 47 | 1017.7 |
| 20260903213523 | 97 | 198 | 2.0 | 9.0 | 0.00 | 0.00 | 0.00 | 47 | 1015.7 |
| 20260903213045 | 97 | 142 | 4.0 | 11.0 | 0.00 | 0.00 | 0.00 | 46 | 1015.6 |
| 20260903212909 | 98 | 120 | 4.0 | 10.0 | 0.00 | 0.00 | 0.00 | 45 | 1017.6 |
| 20260903212523 | 98 | 195 | 6.0 | 11.0 | 0.00 | 0.00 | 0.00 | 45 | 1015.6 |
| 20260903212023 | 98 | 207 | 3.0 | 7.0 | 0.00 | 0.00 | 0.00 | 44 | 1015.6 |
| 20260903211900 | 98 | 157 | 2.0 | 5.0 | 0.00 | 0.00 | 0.00 | 43 | 1017.7 |
| 20260903211549 | 98 | 249 | 3.0 | 7.0 | 0.00 | 0.00 | 0.00 | 41 | 1015.6 |
| 20260903211028 | 98 | 224 | 2.0 | 6.0 | 0.00 | 0.00 | 0.00 | 41 | 1015.7 |
| 20260903210525 | 98 | 225 | 2.0 | 8.0 | 0.00 | 0.00 | 0.00 | 42 | 1015.7 |
| 20260903210054 | 98 | 226 | 4.0 | 8.0 | 0.00 | 0.00 | 0.00 | 40 | 1015.6 |
| 20260903205524 | 98 | 273 | 2.0 | 8.0 | 0.00 | 0.00 | 0.00 | 41 | 1015.7 |
| 20260903205027 | 99 | 264 | 1.0 | 8.0 | 0.00 | 0.00 | 0.00 | 40 | 1015.8 |
| 20260903204552 | 99 | 183 | 3.0 | 7.0 | 0.00 | 0.00 | 0.00 | 41 | 1017.9 |
| 20260903204547 | 99 | 144 | 4.0 | 8.0 | 0.00 | 0.00 | 0.00 | 41 | 1015.8 |
| 20260903204026 | 99 | 127 | 2.0 | 8.0 | 0.00 | 0.00 | 0.00 | 40 | 1015.8 |
| 20260903203526 | 99 | 205 | 3.0 | 8.0 | 0.00 | 0.00 | 0.00 | 42 | 1015.9 |
| 20260903203049 | 98 | 132 | 2.0 | 9.0 | 0.00 | 0.00 | 0.00 | 40 | 1015.9 |
| 20260903202525 | 99 | 0 | 3.0 | 9.0 | 0.00 | 0.00 | 0.00 | 40 | 1016.0 |
| 20260903202351 | 99 | 170 | 2.0 | 7.0 | 0.00 | 0.00 | 0.00 | 41 | 1018.1 |
| 20260903202028 | 98 | 194 | 2.0 | 8.0 | 0.00 | 0.00 | 0.00 | 42 | 1016.1 |
| 20260903201553 | 98 | 199 | 2.0 | 8.0 | 0.00 | 0.00 | 0.00 | 42 | 1016.1 |
| 20260903201410 | 99 | 231 | 2.0 | 7.0 | 0.00 | 0.00 | 0.00 | 42 | 1018.1 |
| 20260903201025 | 98 | 175 | 3.0 | 8.0 | 0.00 | 0.00 | 0.00 | 42 | 1016.2 |
| 20260903200524 | 98 | 104 | 2.0 | 8.0 | 0.00 | 0.00 | 0.00 | 41 | 1016.1 |
| 20260903200346 | 99 | 239 | 3.0 | 7.0 | 0.00 | 0.00 | 0.00 | 41 | 1018.3 |
| 20260903200050 | 99 | 233 | 3.0 | 8.0 | 0.00 | 0.00 | 0.00 | 42 | 1016.2 |
| 20260903195524 | 99 | 129 | 3.0 | 8.0 | 0.00 | 0.00 | 0.00 | 42 | 1016.2 |
| 20260903195411 | 99 | 175 | 2.0 | 9.0 | 0.00 | 0.00 | 0.00 | 42 | 1018.2 |
| 20260903195026 | 98 | 170 | 3.0 | 8.0 | 0.00 | 0.00 | 0.00 | 45 | 1016.2 |
| 20260903194545 | 98 | 355 | 2.0 | 12.0 | 0.00 | 0.00 | 0.00 | 44 | 1016.2 |
| 20260903194419 | 99 | 301 | 3.0 | 9.0 | 0.00 | 0.00 | 0.00 | 43 | 1018.2 |
| 20260903194025 | 98 | 167 | 4.0 | 12.0 | 0.00 | 0.00 | 0.00 | 44 | 1016.4 |
| 20260903193524 | 98 | 130 | 4.0 | 12.0 | 0.00 | 0.00 | 0.00 | 43 | 1016.5 |
| 20260903193422 | 99 | 139 | 3.0 | 11.0 | 0.00 | 0.00 | 0.00 | 43 | 1018.5 |
| 20260903193042 | 98 | 169 | 4.0 | 12.0 | 0.00 | 0.00 | 0.00 | 43 | 1016.5 |
| 20260903192524 | 99 | 195 | 5.0 | 12.0 | 0.00 | 0.00 | 0.00 | 45 | 1016.5 |
| 20260903192024 | 98 | 112 | 3.0 | 10.0 | 0.00 | 0.00 | 0.00 | 44 | 1016.6 |
| 20260903191548 | 98 | 189 | 6.0 | 10.0 | 0.00 | 0.00 | 0.00 | 44 | 1016.6 |
| 20260903191338 | 98 | 192 | 3.0 | 10.0 | 0.00 | 0.00 | 0.00 | 47 | 1018.6 |
| 20260903191025 | 97 | 36 | 1.0 | 11.0 | 0.00 | 0.00 | 0.00 | 43 | 1016.6 |
| 20260903190524 | 98 | 287 | 5.0 | 11.0 | 0.00 | 0.00 | 0.00 | 45 | 1016.6 |
| 20260903190358 | 99 | 191 | 3.0 | 10.0 | 0.00 | 0.00 | 0.00 | 45 | 1018.7 |
| 20260903190048 | 98 | 231 | 3.0 | 10.0 | 0.00 | 0.00 | 0.00 | 44 | 1016.6 |
| 20260903185523 | 98 | 280 | 5.0 | 10.0 | 0.00 | 0.00 | 0.00 | 43 | 1016.8 |
| 20260903185348 | 99 | 214 | 3.0 | 7.0 | 0.00 | 0.00 | 0.00 | 44 | 1018.9 |
| 20260903185027 | 99 | 233 | 4.0 | 8.0 | 0.00 | 0.00 | 0.00 | 45 | 1016.7 |
| 20260903184543 | 98 | 177 | 3.0 | 6.0 | 0.00 | 0.00 | 0.00 | 46 | 1016.8 |
| 20260903184352 | 98 | 226 | 1.0 | 9.0 | 0.00 | 0.00 | 0.00 | 45 | 1018.9 |
| 20260903184027 | 97 | 129 | 0.0 | 9.0 | 0.00 | 0.00 | 0.00 | 45 | 1017.0 |
| 20260903183525 | 98 | 183 | 3.0 | 10.0 | 0.00 | 0.00 | 0.00 | 44 | 1017.0 |
| 20260903183333 | 99 | 230 | 4.0 | 9.0 | 0.00 | 0.00 | 0.00 | 45 | 1019.0 |
| 20260903183053 | 98 | 196 | 4.0 | 10.0 | 0.00 | 0.00 | 0.00 | 45 | 1017.0 |
| 20260903182525 | 98 | 149 | 2.0 | 8.0 | 0.00 | 0.00 | 0.00 | 45 | 1017.0 |
| 20260903182332 | 98 | 226 | 3.0 | 6.0 | 0.00 | 0.00 | 0.00 | 47 | 1019.1 |
| 20260903182024 | 98 | 212 | 3.0 | 8.0 | 0.00 | 0.00 | 0.00 | 44 | 1017.1 |
| 20260903181547 | 97 | 137 | 3.0 | 8.0 | 0.00 | 0.00 | 0.00 | 46 | 1017.2 |
| 20260903181323 | 98 | 160 | 2.0 | 6.0 | 0.00 | 0.00 | 0.00 | 45 | 1019.2 |
| 20260903181024 | 97 | 306 | 3.0 | 8.0 | 0.00 | 0.00 | 0.00 | 46 | 1017.2 |
| 20260903180527 | 97 | 0 | 1.0 | 4.0 | 0.00 | 0.00 | 0.00 | 46 | 1017.2 |
| 20260903180331 | 97 | 135 | 1.0 | 3.0 | 0.00 | 0.00 | 0.00 | 47 | 1019.2 |
| 20260903180111 | 95 | 121 | 1.0 | 4.0 | 0.00 | 0.00 | 0.00 | 48 | 1017.3 |
| 20260903175522 | 94 | 115 | 1.0 | 6.0 | 0.00 | 0.00 | 0.00 | 50 | 1017.3 |
| 20260903175024 | 94 | 60 | 1.0 | 6.0 | 0.00 | 0.00 | 0.00 | 49 | 1017.5 |
| 20260903174542 | 95 | 199 | 3.0 | 6.0 | 0.00 | 0.00 | 0.00 | 51 | 1017.5 |
| 20260903174244 | 96 | 168 | 1.0 | 5.0 | 0.00 | 0.00 | 0.00 | 49 | 1019.6 |
| 20260903174023 | 96 | 137 | 2.0 | 6.0 | 0.00 | 0.00 | 0.00 | 49 | 1017.6 |
| 20260903173525 | 96 | 146 | 1.0 | 6.0 | 0.00 | 0.00 | 0.00 | 47 | 1017.5 |
| 20260903173306 | 97 | 201 | 2.0 | 8.0 | 0.00 | 0.00 | 0.00 | 48 | 1019.6 |
| 20260903173049 | 96 | 193 | 2.0 | 5.0 | 0.00 | 0.00 | 0.00 | 49 | 1017.6 |
| 20260903172529 | 95 | 176 | 2.0 | 10.0 | 0.00 | 0.00 | 0.00 | 50 | 1017.7 |
| 20260903172026 | 96 | 100 | 3.0 | 10.0 | 0.00 | 0.00 | 0.00 | 46 | 1017.7 |
| 20260903171551 | 97 | 124 | 5.0 | 10.0 | 0.00 | 0.00 | 0.00 | 46 | 1017.8 |
| 20260903171123 | 96 | 156 | 1.0 | 6.0 | 0.00 | 0.00 | 0.00 | 46 | 1019.9 |
| 20260903171024 | 95 | 80 | 4.0 | 8.0 | 0.00 | 0.00 | 0.00 | 48 | 1017.9 |
| 20260903170528 | 95 | 108 | 1.0 | 4.0 | 0.00 | 0.00 | 0.00 | 49 | 1017.9 |
| 20260903170126 | 96 | 326 | 1.0 | 3.0 | 0.00 | 0.00 | 0.00 | 50 | 1020.0 |
| 20260903170041 | 95 | 240 | 1.0 | 4.0 | 0.00 | 0.00 | 0.00 | 50 | 1018.0 |
| 20260903165525 | 94 | 0 | 1.0 | 4.0 | 0.00 | 0.00 | 0.00 | 50 | 1018.0 |
| 20260903165115 | 96 | 359 | 2.0 | 7.0 | 0.00 | 0.00 | 0.00 | 49 | 1020.1 |
| 20260903165025 | 95 | 16 | 2.0 | 4.0 | 0.00 | 0.00 | 0.00 | 48 | 1018.1 |
| 20260903164559 | 96 | 116 | 2.0 | 8.0 | 0.00 | 0.00 | 0.00 | 48 | 1018.1 |
| 20260903164029 | 95 | 71 | 2.0 | 8.0 | 0.00 | 0.00 | 0.00 | 49 | 1018.2 |
| 20260903163527 | 95 | 90 | 3.0 | 7.0 | 0.00 | 0.00 | 0.00 | 49 | 1018.2 |
| 20260903163047 | 95 | 91 | 3.0 | 7.0 | 0.00 | 0.00 | 0.00 | 49 | 1018.3 |
| 20260903162932 | 96 | 114 | 2.0 | 6.0 | 0.00 | 0.00 | 0.00 | 50 | 1020.4 |
| 20260903162524 | 94 | 124 | 2.0 | 4.0 | 0.00 | 0.00 | 0.00 | 49 | 1018.3 |